sat.trackr.live / text

‹ back to catalog

ASTROCAST-0404

NORAD 55112 · 2023-001DH

PAYLOAD ACTIVE UNKNOWN

§ Identity

Operator
Country
SWTZ
Launch date
2023-01-03
Launch site
AFETR
Launch vehicle
Mass (kg)
RCS (m²)

External: N2YO · Heavens-Above · Gunter

§ Orbital elements

Epoch: 2026-09-21T18:55:51.010176Z

Period
94.10 min
Inclination
97.5653°
Eccentricity
0.0006382
Mean motion
15.30346712 rev/d
Perigee alt
470.4 km
Apogee alt
479.2 km
Semi-major
6,852.9 km
B*
6.5444e-4
RAAN
0.5276°
Arg perigee
16.0541°
Mean anomaly
344.0901°
Rev number
15,929

§ Raw data

ASTROCAST-04041 55112U 23001DH  26264.78878484  .00019169  00000+0  65444-3 0  99952 55112  97.5653   0.5276 0006382  16.0541 344.0901 15.30346712159296

JSON: /api/v1/satellites/55112 · /tle

For live sub-satellite position, see the globe view (requires WebGL).

§ Visibility from observer

Set your observer location to see the next 7 days of passes ≥ 10°. The values pass through the URL so the page stays shareable.

No JS? Fill the form by hand. The geolocation button needs JavaScript.